,,PA_Meas_PMT16A,,PR_Meas_QMR101_102,,RH_Meas_QMH101,,SR_Meas_QMS101,,TA_Meas_QMH101,,GenWind,,GenWind,
time,status,PA,status,PR,status,RH,status,SR,status,TA,status,DirAvg,status,SpdAvg,
2016-03-22, 07:44:04,VALID,918.696,VALID,0,VALID,104,VALID,90.1431,VALID,19.3518,VALID,25,VALID,0.103906,
2016-03-22, 07:45:04,VALID,918.704,VALID,0,VALID,104,VALID,92.8292,VALID,19.3143,VALID,24,VALID,1.88516,
2016-03-22, 07:46:04,VALID,918.687,VALID,0,VALID,104,VALID,99.8128,VALID,19.3518,VALID,38,VALID,2.04844,
2016-03-22, 07:47:04,VALID,918.72,VALID,0,VALID,104,VALID,105.4,VALID,19.3713,VALID,14,VALID,2.59648,
2016-03-22, 07:48:04,VALID,918.69,VALID,0,VALID,104,VALID,110.235,VALID,19.3908,VALID,37,VALID,1.03672,
2016-03-22, 07:49:04,VALID,918.704,VALID,0,VALID,104,VALID,96.5896,VALID,19.4103,VALID,35,VALID,1.85352,
2016-03-22, 07:50:04,VALID,918.736,VALID,0,VALID,104,VALID,97.2342,VALID,19.4493,VALID,15,VALID,2.80352,
2016-03-22, 07:51:04,VALID,918.75,VALID,0,VALID,104,VALID,93.7961,VALID,19.3518,VALID,2,VALID,2.05391,
2016-03-22, 07:52:04,VALID,918.757,VALID,0,VALID,104,VALID,92.8292,VALID,19.3518,VALID,17,VALID,1.44805,
2016-03-22, 07:53:04,VALID,918.789,VALID,0,VALID,104,VALID,89.391,VALID,19.4313,VALID,33,VALID,1.12617,
2016-03-22, 07:55:04,VALID,918.859,VALID,0,VALID,104,VALID,94.3333,VALID,19.4298,VALID,29,VALID,2.08984,
2016-03-22, 07:56:04,VALID,918.872,VALID,0,VALID,104,VALID,99.1682,VALID,19.4493,VALID,21,VALID,1.26992,
2016-03-22, 07:57:04,VALID,918.937,VALID,0,VALID,104,VALID,96.9119,VALID,19.3713,VALID,349,VALID,1.39648,
2016-03-22, 07:58:04,VALID,918.891,VALID,0,VALID,104,VALID,98.631,VALID,19.3323,VALID,5,VALID,2.35234,
2016-03-22, 07:59:04,VALID,918.931,VALID,0,VALID,104,VALID,105.292,VALID,19.3518,VALID,36,VALID,2.11523,
2016-03-22, 08:01:04,VALID,918.973,VALID,0,VALID,104,VALID,113.458,VALID,19.4688,VALID,30,VALID,0.991797,
2016-03-22, 08:02:04,VALID,918.971,VALID,0,VALID,104,VALID,116.466,VALID,19.3908,VALID,17,VALID,1.40937,
2016-03-22, 08:03:04,VALID,918.975,VALID,0,VALID,104,VALID,112.706,VALID,19.4493,VALID,19,VALID,1.01289,
2016-03-22, 08:04:04,VALID,919.002,VALID,0,VALID,104,VALID,112.276,VALID,19.4688,VALID,14,VALID,1.57109,
2016-03-22, 08:05:04,VALID,918.989,VALID,0,VALID,104,VALID,116.144,VALID,19.5273,VALID,30,VALID,2.06328,
2016-03-22, 08:06:04,VALID,919.022,VALID,0,VALID,104,VALID,119.582,VALID,19.5678,VALID,33,VALID,1.39023,
2016-03-22, 08:07:04,VALID,919.024,VALID,0,VALID,104,VALID,121.301,VALID,19.5663,VALID,29,VALID,1.1707,
2016-03-22, 08:08:04,VALID,919.031,VALID,0,VALID,104,VALID,125.384,VALID,19.6053,VALID,19,VALID,1.06914,
2016-03-22, 08:09:04,VALID,919.046,VALID,0,VALID,104,VALID,131.078,VALID,19.5858,VALID,18,VALID,2.11445,
2016-03-22, 08:10:04,VALID,919.04,VALID,0,VALID,104,VALID,134.731,VALID,19.5078,VALID,39,VALID,0.832031,
2016-03-22, 08:11:04,VALID,919.078,VALID,0,VALID,104,VALID,136.128,VALID,19.6053,VALID,21,VALID,0.789453,
2016-03-22, 08:12:04,VALID,919.112,VALID,0,VALID,104,VALID,138.921,VALID,19.6833,VALID,22,VALID,0.407422,
2016-03-22, 08:13:04,VALID,919.11,VALID,0,VALID,104,VALID,142.145,VALID,19.6638,VALID,281,VALID,0.633984,
2016-03-22, 08:14:04,VALID,919.133,VALID,0,VALID,104,VALID,146.657,VALID,19.6248,VALID,9,VALID,0,
2016-03-22, 08:15:04,VALID,919.125,VALID,0,VALID,104,VALID,147.732,VALID,19.5663,VALID,300,VALID,0,
2016-03-22, 08:16:04,VALID,919.161,VALID,0,VALID,104,VALID,152.459,VALID,19.5093,VALID,318,VALID,0,
2016-03-22, 08:17:04,VALID,919.189,VALID,0,VALID,104,VALID,153.641,VALID,19.5483,VALID,318,VALID,0,
2016-03-22, 08:18:04,VALID,919.207,VALID,0,VALID,104,VALID,155.038,VALID,19.6263,VALID,318,VALID,0,
2016-03-22, 08:19:04,VALID,919.23,VALID,0,VALID,104,VALID,155.145,VALID,19.6248,VALID,318,VALID,0,
2016-03-22, 08:20:04,VALID,919.265,VALID,0,VALID,104,VALID,152.674,VALID,19.6053,VALID,307,VALID,0,
2016-03-22, 08:21:04,VALID,919.264,VALID,0,VALID,104,VALID,154.5,VALID,19.5663,VALID,307,VALID,0,
2016-03-22, 08:22:04,VALID,919.28,VALID,0,VALID,104,VALID,154.823,VALID,19.6848,VALID,307,VALID,0,
2016-03-22, 08:23:04,VALID,919.29,VALID,0,VALID,104,VALID,154.608,VALID,19.7628,VALID,3,VALID,0,
2016-03-22, 08:24:04,VALID,919.3,VALID,0,VALID,104,VALID,151.922,VALID,19.8993,VALID,3,VALID,0,
2016-03-22, 08:25:04,VALID,919.312,VALID,0,VALID,104,VALID,152.352,VALID,19.9758,VALID,3,VALID,0,
2016-03-22, 08:26:04,VALID,919.347,VALID,0,VALID,104,VALID,154.93,VALID,20.1139,VALID,3,VALID,0,
2016-03-22, 08:27:04,VALID,919.32,VALID,0,VALID,104,VALID,156.542,VALID,20.0928,VALID,3,VALID,0,
2016-03-22, 08:28:04,VALID,919.351,VALID,0,VALID,104,VALID,159.443,VALID,20.1318,VALID,2,VALID,0,
2016-03-22, 08:29:04,VALID,919.374,VALID,0,VALID,104,VALID,163.955,VALID,20.1123,VALID,2,VALID,0,
2016-03-22, 08:30:04,VALID,919.396,VALID,0,VALID,104,VALID,165.459,VALID,20.0538,VALID,333,VALID,0,
2016-03-22, 08:31:04,VALID,919.385,VALID,0,VALID,104,VALID,165.03,VALID,19.8783,VALID,332,VALID,0,
2016-03-22, 08:32:04,VALID,919.389,VALID,0,VALID,104,VALID,162.988,VALID,19.8408,VALID,321,VALID,0,
2016-03-22, 08:33:04,VALID,919.381,VALID,0,VALID,104,VALID,164.385,VALID,19.6443,VALID,302,VALID,0,
2016-03-22, 08:34:04,VALID,919.378,VALID,0,VALID,104,VALID,167.716,VALID,19.6053,VALID,302,VALID,0,
2016-03-22, 08:35:04,VALID,919.402,VALID,0,VALID,104,VALID,170.079,VALID,19.6458,VALID,302,VALID,0,
2016-03-22, 08:36:04,VALID,919.418,VALID,0,VALID,104,VALID,171.046,VALID,19.6638,VALID,302,VALID,0,
2016-03-22, 08:37:04,VALID,919.437,VALID,0,VALID,104,VALID,171.369,VALID,19.7808,VALID,301,VALID,0,
2016-03-22, 08:38:04,VALID,919.446,VALID,0,VALID,104,VALID,171.691,VALID,19.8198,VALID,301,VALID,0,
2016-03-22, 08:39:04,VALID,919.419,VALID,0,VALID,104,VALID,172.765,VALID,19.8018,VALID,294,VALID,0,
2016-03-22, 08:40:04,VALID,919.426,VALID,0,VALID,104,VALID,174.592,VALID,19.8198,VALID,294,VALID,0,
2016-03-22, 08:41:04,VALID,919.422,VALID,0,VALID,104,VALID,177.17,VALID,19.8393,VALID,295,VALID,0,
2016-03-22, 08:42:04,VALID,919.404,VALID,0,VALID,104,VALID,180.394,VALID,19.8018,VALID,352,VALID,0,
2016-03-22, 08:43:04,VALID,919.388,VALID,0,VALID,104,VALID,185.014,VALID,19.7823,VALID,358,VALID,0,
2016-03-22, 08:44:04,VALID,919.367,VALID,0,VALID,104,VALID,190.493,VALID,19.7808,INVALID,360,VALID,0,
2016-03-22, 08:45:04,VALID,919.333,VALID,0,VALID,104,VALID,196.402,VALID,19.7613,VALID,337,VALID,0,
2016-03-22, 08:46:04,VALID,919.334,VALID,0,VALID,104,VALID,200.808,VALID,19.8993,VALID,29,VALID,1.29219,
2016-03-22, 08:47:04,VALID,919.322,VALID,0,VALID,104,VALID,204.783,VALID,19.8798,VALID,11,VALID,0.741797,
2016-03-22, 08:48:04,VALID,919.322,VALID,0,VALID,104,VALID,207.899,VALID,19.8588,VALID,10,VALID,1.5707,
2016-03-22, 08:49:04,VALID,919.359,VALID,0,VALID,104,VALID,210.8,VALID,19.7823,VALID,8,VALID,1.24688,
2016-03-22, 08:50:04,VALID,919.363,VALID,0,VALID,104,VALID,213.378,VALID,19.7808,VALID,25,VALID,1.28672,
2016-03-22, 08:51:04,VALID,919.37,VALID,0,VALID,104,VALID,216.279,VALID,19.7418,VALID,23,VALID,1.49766,
2016-03-22, 08:52:04,VALID,919.377,VALID,0,VALID,104,VALID,219.717,VALID,19.7613,VALID,13,VALID,1.30508,
2016-03-22, 08:53:04,VALID,919.402,VALID,0,VALID,104,VALID,223.37,VALID,19.7808,VALID,10,VALID,1.46602,
2016-03-22, 08:54:04,VALID,919.369,VALID,0,VALID,104,VALID,227.345,VALID,19.8198,VALID,8,VALID,1.1957,
2016-03-22, 08:55:04,VALID,919.357,VALID,0,VALID,104,VALID,230.998,VALID,19.9563,VALID,8,VALID,1.81562,
2016-03-22, 08:56:04,VALID,919.412,VALID,0,VALID,104,VALID,234.866,VALID,19.9758,VALID,5,VALID,1.04922,
2016-03-22, 08:57:04,VALID,919.429,VALID,0,VALID,104,VALID,237.767,VALID,19.9953,VALID,12,VALID,1.63008,
2016-03-22, 08:58:04,VALID,919.479,VALID,0,VALID,104,VALID,239.701,VALID,19.9173,VALID,8,VALID,0.973828,
2016-03-22, 08:59:04,VALID,919.485,VALID,0,VALID,104,VALID,241.42,VALID,19.8768,VALID,11,VALID,0,
2016-03-22, 09:00:04,VALID,919.495,VALID,0,VALID,104,VALID,243.032,VALID,19.8768,VALID,14,VALID,0,
2016-03-22, 09:01:04,VALID,919.516,VALID,0,VALID,104,VALID,244.644,VALID,19.8963,VALID,14,VALID,0,
2016-03-22, 09:02:04,VALID,919.49,VALID,0,VALID,104,VALID,246.47,VALID,19.9173,VALID,47,VALID,0,
2016-03-22, 09:03:04,VALID,919.535,VALID,0,VALID,104,VALID,249.049,VALID,19.9563,VALID,47,VALID,0,
2016-03-22, 09:04:04,VALID,919.536,VALID,0,VALID,104,VALID,252.487,VALID,19.9353,VALID,47,VALID,0,
2016-03-22, 09:05:04,VALID,919.544,VALID,0,VALID,104,VALID,256.569,VALID,20.0538,VALID,47,VALID,0,
2016-03-22, 09:06:04,VALID,919.571,VALID,0,VALID,104,VALID,260.115,VALID,20.0733,VALID,47,VALID,0,
2016-03-22, 09:07:04,VALID,919.564,VALID,0,VALID,104,VALID,263.553,VALID,20.1108,VALID,47,VALID,0,
2016-03-22, 09:08:04,VALID,919.563,VALID,0,VALID,104,VALID,266.669,VALID,20.2083,VALID,52,VALID,0,
2016-03-22, 09:09:04,VALID,919.565,VALID,0,VALID,104,VALID,272.686,VALID,20.3253,VALID,51,VALID,0,
2016-03-22, 09:10:04,VALID,919.591,VALID,0,VALID,104,VALID,286.223,VALID,20.5399,VALID,310,VALID,0,
2016-03-22, 09:11:04,VALID,919.563,VALID,0,VALID,104,VALID,297.505,VALID,20.6374,VALID,313,VALID,0,
2016-03-22, 09:12:04,VALID,919.568,VALID,0,VALID,104,VALID,304.918,VALID,20.7739,VALID,334,VALID,0,
2016-03-22, 09:13:04,VALID,919.539,VALID,0,VALID,104,VALID,319.423,VALID,20.8129,VALID,15,VALID,0.373047,
2016-03-22, 09:14:04,VALID,919.567,VALID,0,VALID,104,VALID,322.109,VALID,20.891,VALID,45,VALID,0,
2016-03-22, 09:15:04,VALID,919.575,VALID,0,VALID,104,VALID,348.002,VALID,20.9495,VALID,43,VALID,0,
2016-03-22, 09:16:04,VALID,919.618,VALID,0,VALID,104,VALID,343.167,VALID,20.9495,VALID,319,VALID,0,
2016-03-22, 09:17:04,VALID,919.631,VALID,0,VALID,104,VALID,320.175,VALID,20.9089,VALID,321,VALID,0,
2016-03-22, 09:18:04,VALID,919.633,VALID,0,VALID,104,VALID,312.546,VALID,20.8145,VALID,314,VALID,0,
2016-03-22, 09:19:04,VALID,919.661,VALID,0,VALID,104,VALID,306.1,VALID,20.795,VALID,258,VALID,0,
2016-03-22, 09:20:04,VALID,919.655,VALID,0,VALID,104,VALID,307.067,VALID,20.7349,VALID,256,VALID,0,
2016-03-22, 09:21:04,VALID,919.66,VALID,0,VALID,104,VALID,310.397,VALID,20.6959,VALID,261,VALID,0,
2016-03-22, 09:22:04,VALID,919.67,VALID,0,VALID,104,VALID,315.232,VALID,20.6959,VALID,261,VALID,0,
2016-03-22, 09:23:04,VALID,919.672,VALID,0,VALID,104,VALID,321.464,VALID,20.7544,VALID,285,VALID,0,
2016-03-22, 09:24:04,VALID,919.691,VALID,0,VALID,104,VALID,328.233,VALID,20.7349,VALID,255,VALID,0,
2016-03-22, 09:25:04,VALID,919.697,VALID,0,VALID,104,VALID,335.002,VALID,20.7739,VALID,255,VALID,0,
2016-03-22, 09:26:04,VALID,919.65,VALID,0,VALID,104,VALID,341.233,VALID,20.7934,VALID,255,VALID,0,
2016-03-22, 09:27:04,VALID,919.671,VALID,0,INVALID,109.061,VALID,346.927,VALID,20.8714,VALID,248,VALID,0,
2016-03-22, 09:28:04,VALID,919.672,VALID,0,INVALID,109.259,VALID,354.233,VALID,20.9674,VALID,224,VALID,0,
2016-03-22, 09:29:04,VALID,919.661,VALID,0,INVALID,109.465,VALID,364.44,VALID,21.0454,VALID,271,VALID,0,
2016-03-22, 09:30:04,VALID,919.675,VALID,0,INVALID,109.465,VALID,378.623,VALID,21.2015,VALID,274,VALID,0,
2016-03-22, 09:31:04,VALID,919.724,VALID,0,INVALID,109.259,VALID,394.094,VALID,21.3786,VALID,275,VALID,0,
2016-03-22, 09:32:04,VALID,919.741,VALID,0,VALID,104,VALID,387.97,VALID,21.4567,VALID,236,VALID,0,
2016-03-22, 09:33:04,VALID,919.742,VALID,0,VALID,104,VALID,386.466,VALID,21.5721,VALID,245,VALID,0,
2016-03-22, 09:34:04,VALID,919.766,VALID,0,VALID,104,VALID,387.54,VALID,21.7688,VALID,246,VALID,0,
2016-03-22, 09:35:04,VALID,919.768,VALID,0,VALID,104,VALID,387.97,VALID,21.9428,VALID,321,VALID,0,
2016-03-22, 09:36:04,VALID,919.788,VALID,0,VALID,104,VALID,386.358,VALID,21.9623,VALID,299,VALID,0,
2016-03-22, 09:37:04,VALID,919.786,VALID,0,VALID,104,VALID,381.846,VALID,21.9444,VALID,344,VALID,0,
2016-03-22, 09:38:04,VALID,919.821,VALID,0,VALID,103.93,VALID,375.185,VALID,21.9233,VALID,346,VALID,0,
2016-03-22, 09:39:04,VALID,919.811,VALID,0,VALID,102.992,VALID,368.953,VALID,21.9428,VALID,351,VALID,0,
2016-03-22, 09:40:04,VALID,919.806,VALID,0,VALID,103.785,VALID,365.192,VALID,21.9818,VALID,336,VALID,0,
2016-03-22, 09:41:04,VALID,919.809,VALID,0,VALID,103.13,VALID,364.011,VALID,21.9996,VALID,350,VALID,0,
2016-03-22, 09:42:04,VALID,919.858,VALID,0,VALID,103.884,VALID,366.052,VALID,22.0794,VALID,312,VALID,0,
2016-03-22, 09:43:04,VALID,919.862,VALID,0,VALID,102.116,VALID,370.887,VALID,22.0191,VALID,286,VALID,0,
2016-03-22, 09:44:04,VALID,919.839,VALID,0,VALID,102.962,VALID,378.623,VALID,21.9606,VALID,282,VALID,0,
2016-03-22, 09:45:04,VALID,919.878,VALID,0,VALID,102.192,VALID,385.069,VALID,21.9818,VALID,275,VALID,0,
2016-03-22, 09:46:04,VALID,919.897,VALID,0,VALID,102.07,VALID,375.507,VALID,21.9623,VALID,273,VALID,0,
2016-03-22, 09:47:04,VALID,919.885,VALID,0,VALID,102.893,VALID,371.531,VALID,22.0191,VALID,273,VALID,0,
2016-03-22, 09:48:04,VALID,919.911,VALID,0,VALID,101.414,VALID,368.308,VALID,22.1184,VALID,273,VALID,0,
2016-03-22, 09:49:04,VALID,919.914,VALID,0,VALID,102.367,VALID,366.159,VALID,22.1947,VALID,273,VALID,0,
2016-03-22, 09:50:04,VALID,919.903,VALID,0,VALID,102.413,VALID,366.374,VALID,22.3508,VALID,273,VALID,0,
2016-03-22, 09:51:04,VALID,919.96,VALID,0,VALID,100.987,VALID,369.598,VALID,22.5281,VALID,282,VALID,0,
2016-03-22, 09:52:04,VALID,919.954,VALID,0,VALID,92.7998,VALID,373.895,VALID,22.4696,VALID,296,VALID,0,
2016-03-22, 09:53:04,VALID,919.964,VALID,0,VALID,96.9317,VALID,376.581,VALID,22.3508,VALID,289,VALID,0,
2016-03-22, 09:54:04,VALID,919.953,VALID,0,VALID,99.1959,VALID,375.614,VALID,22.3899,VALID,334,VALID,0,
2016-03-22, 09:55:04,VALID,919.97,VALID,0,VALID,97.8542,VALID,370.672,VALID,22.4696,VALID,351,VALID,0,
2016-03-22, 09:56:04,VALID,919.941,VALID,0,VALID,99.173,VALID,361.002,VALID,22.6452,VALID,3,VALID,0,
2016-03-22, 09:57:04,VALID,919.973,VALID,0,VALID,98.8528,VALID,348.647,VALID,22.8599,VALID,5,VALID,0,
2016-03-22, 09:58:04,VALID,919.973,VALID,0,VALID,84.1091,VALID,337.258,VALID,22.9557,VALID,282,VALID,0,
2016-03-22, 09:59:04,VALID,919.973,VALID,0,VALID,85.5881,VALID,328.125,VALID,23.0746,VALID,282,VALID,0,
2016-03-22, 10:00:04,VALID,920.001,VALID,0,VALID,83.4459,VALID,323.29,VALID,22.9965,VALID,305,VALID,0,
2016-03-22, 10:01:04,VALID,919.981,VALID,0,VALID,87.4863,VALID,322.753,VALID,22.977,VALID,332,VALID,0,
2016-03-22, 10:02:04,VALID,919.985,VALID,0,VALID,85.0087,VALID,325.224,VALID,22.8794,VALID,243,VALID,0,
2016-03-22, 10:03:04,VALID,920.038,VALID,0,VALID,94.477,VALID,330.274,VALID,22.7606,VALID,250,VALID,0,
2016-03-22, 10:04:04,VALID,920.012,VALID,0,VALID,93.3259,VALID,336.076,VALID,22.7038,VALID,289,VALID,0,
2016-03-22, 10:05:04,VALID,920.083,VALID,0,VALID,93.1505,VALID,342.093,VALID,22.7428,VALID,270,VALID,0,
2016-03-22, 10:06:04,VALID,920.042,VALID,0,VALID,97.1681,VALID,347.035,VALID,22.7233,VALID,247,VALID,0,
2016-03-22, 10:07:04,VALID,920.073,VALID,0,VALID,98.5784,VALID,346.39,VALID,22.7996,VALID,247,VALID,0,
2016-03-22, 10:08:04,VALID,920.055,VALID,0,VALID,84.4674,VALID,339.621,VALID,22.8191,VALID,266,VALID,0,
2016-03-22, 10:09:04,VALID,920.036,VALID,0,VALID,83.484,VALID,328.018,VALID,22.7021,VALID,246,VALID,0,
2016-03-22, 10:10:04,VALID,920.023,VALID,0,VALID,87.6388,VALID,316.522,VALID,22.6843,VALID,260,VALID,0,
2016-03-22, 10:11:04,VALID,920.035,VALID,0,VALID,88.6832,VALID,306.852,VALID,22.7411,VALID,313,VALID,0,
2016-03-22, 10:12:04,VALID,920.03,VALID,0,VALID,86.9222,VALID,299.653,VALID,22.7021,VALID,297,VALID,0,
2016-03-22, 10:13:04,VALID,920.029,VALID,0,VALID,87.372,VALID,293.637,VALID,22.7021,VALID,289,VALID,0,
2016-03-22, 10:14:04,VALID,920.006,VALID,0,VALID,92.6321,VALID,287.727,VALID,22.8191,VALID,248,VALID,0,
2016-03-22, 10:15:04,VALID,920.014,VALID,0,VALID,89.4379,VALID,282.14,VALID,22.8582,VALID,250,VALID,0,
2016-03-22, 10:16:04,VALID,920.038,VALID,0,VALID,96.6725,VALID,276.876,VALID,22.7801,VALID,258,VALID,0,
2016-03-22, 10:17:04,VALID,920.078,VALID,0,VALID,97.5035,VALID,271.826,VALID,22.663,VALID,279,VALID,0,
2016-03-22, 10:18:04,VALID,920.066,VALID,0,VALID,99.3026,VALID,265.38,VALID,22.6223,VALID,264,VALID,0,
2016-03-22, 10:19:04,VALID,920.078,VALID,0,VALID,99.0739,VALID,257.966,VALID,22.663,VALID,263,VALID,0,
2016-03-22, 10:20:04,VALID,920.118,VALID,0,VALID,98.7461,VALID,250.983,VALID,22.6825,VALID,261,VALID,0,
2016-03-22, 10:21:04,VALID,920.087,VALID,0,VALID,97.9609,VALID,245.503,VALID,22.7003,VALID,256,VALID,0,
2016-03-22, 10:22:04,VALID,920.113,VALID,0,VALID,96.2609,VALID,241.957,VALID,22.7979,VALID,256,VALID,0,
2016-03-22, 10:23:04,VALID,920.125,VALID,0,VALID,97.1604,VALID,240.024,VALID,22.7216,VALID,256,VALID,0,
2016-03-22, 10:24:04,VALID,920.136,VALID,0,VALID,93.5927,VALID,239.164,VALID,22.624,VALID,241,VALID,0,
2016-03-22, 10:25:04,VALID,920.136,VALID,0,VALID,96.5811,VALID,239.271,VALID,22.6613,VALID,242,VALID,0,
2016-03-22, 10:26:04,VALID,920.124,VALID,0,VALID,95.59,VALID,240.238,VALID,22.7216,VALID,240,VALID,0,
2016-03-22, 10:27:04,VALID,920.135,VALID,0,VALID,88.4392,VALID,241.85,VALID,22.6045,VALID,263,VALID,0,
2016-03-22, 10:28:04,VALID,920.112,VALID,0,VALID,90.3222,VALID,243.354,VALID,22.5655,VALID,266,VALID,0,
2016-03-22, 10:29:04,VALID,920.079,VALID,0,VALID,92.5483,VALID,244.321,VALID,22.4679,VALID,260,VALID,0,
2016-03-22, 10:30:04,VALID,920.063,VALID,0,VALID,88.0352,VALID,244.321,VALID,22.4077,VALID,247,VALID,0,
2016-03-22, 10:31:04,VALID,920.101,VALID,0,VALID,90.7644,VALID,243.891,VALID,22.3899,VALID,244,VALID,0,
2016-03-22, 10:32:04,VALID,920.093,VALID,0,VALID,85.0316,VALID,243.569,VALID,22.2923,VALID,256,VALID,0,
2016-03-22, 10:33:04,VALID,920.08,VALID,0,VALID,89.9411,VALID,243.032,VALID,22.2142,VALID,249,VALID,0,
2016-03-22, 10:34:04,VALID,920.056,VALID,0,VALID,96.3371,VALID,242.065,VALID,22.2142,VALID,239,VALID,0,
2016-03-22, 10:35:04,VALID,920.049,VALID,0,VALID,90.833,VALID,240.668,VALID,22.2533,VALID,246,VALID,0,
2016-03-22, 10:36:04,VALID,920.073,VALID,0,VALID,90.0021,VALID,238.519,VALID,22.2142,VALID,248,VALID,0.445313,
2016-03-22, 10:37:04,VALID,920.043,VALID,0,VALID,89.2778,VALID,235.726,VALID,22.1947,VALID,250,VALID,0,
2016-03-22, 10:38:04,VALID,920.069,VALID,0,VALID,93.5469,VALID,232.61,VALID,22.2142,VALID,243,VALID,0,
2016-03-22, 10:39:04,VALID,920.077,VALID,0,VALID,90.1316,VALID,229.709,VALID,22.1947,VALID,250,VALID,0,
2016-03-22, 10:40:04,VALID,920.059,VALID,0,VALID,88.1572,VALID,227.453,VALID,22.2338,VALID,271,VALID,0,
2016-03-22, 10:41:04,VALID,920.075,VALID,0,VALID,94.5685,VALID,226.379,VALID,22.2533,VALID,271,VALID,0,
2016-03-22, 10:42:04,VALID,920.071,VALID,0,VALID,93.9967,VALID,227.023,VALID,22.2923,VALID,256,VALID,0,
2016-03-22, 10:43:04,VALID,920.106,VALID,0,VALID,92.6397,VALID,229.279,VALID,22.3313,VALID,240,VALID,0,
2016-03-22, 10:44:04,VALID,920.076,VALID,0,VALID,94.1873,VALID,233.04,VALID,22.3313,VALID,242,VALID,0,
2016-03-22, 10:45:04,VALID,920.093,VALID,0,VALID,91.2599,VALID,236.908,VALID,22.3313,VALID,235,VALID,0,
2016-03-22, 10:46:04,VALID,920.07,VALID,0,VALID,85.9159,VALID,240.668,VALID,22.3703,VALID,244,VALID,0.0417969,
2016-03-22, 10:47:04,VALID,920.091,VALID,0,VALID,87.1509,VALID,244.321,VALID,22.4094,VALID,259,VALID,0,
2016-03-22, 10:48:04,VALID,920.085,VALID,0,VALID,85.7634,VALID,247.867,VALID,22.4289,VALID,244,VALID,0,
2016-03-22, 10:49:04,VALID,920.072,VALID,0,VALID,92.129,VALID,251.95,VALID,22.4874,VALID,242,VALID,0,
2016-03-22, 10:50:04,VALID,920.074,VALID,0,VALID,88.2487,VALID,256.14,VALID,22.5264,VALID,246,VALID,0,
2016-03-22, 10:51:04,VALID,920.053,VALID,0,VALID,80.549,VALID,260.008,VALID,22.4874,VALID,252,VALID,0,
2016-03-22, 10:52:04,VALID,920.073,VALID,0,VALID,80.8235,VALID,262.801,VALID,22.4874,VALID,254,VALID,0,
2016-03-22, 10:53:04,VALID,920.058,VALID,0,VALID,81.5401,VALID,264.628,VALID,22.4874,VALID,269,VALID,0,
2016-03-22, 10:54:04,VALID,920.071,VALID,0,VALID,86.8764,VALID,264.95,VALID,22.585,VALID,268,VALID,0,
2016-03-22, 10:55:04,VALID,920.036,VALID,0,VALID,86.7164,VALID,264.52,VALID,22.7411,VALID,346,VALID,0,
2016-03-22, 10:56:04,VALID,920.054,VALID,0,VALID,80.5719,VALID,263.661,VALID,22.8387,VALID,300,VALID,0,
2016-03-22, 10:57:04,VALID,920.046,VALID,0,VALID,81.5705,VALID,262.479,VALID,22.8191,VALID,299,VALID,0,
2016-03-22, 10:58:04,VALID,920.017,VALID,0,VALID,81.9593,VALID,261.727,VALID,22.8777,VALID,302,VALID,0,
2016-03-22, 10:59:04,VALID,919.99,VALID,0,VALID,79.8553,VALID,261.512,VALID,22.8972,VALID,289,VALID,0,
2016-03-22, 11:00:04,VALID,919.996,VALID,0,VALID,80.1526,VALID,262.371,VALID,22.8972,VALID,239,VALID,0,
2016-03-22, 11:01:04,VALID,919.962,VALID,0,VALID,80.0078,VALID,264.52,VALID,22.8777,VALID,293,VALID,0,
2016-03-22, 11:02:04,VALID,919.931,VALID,0,VALID,81.967,VALID,266.991,VALID,22.8972,VALID,303,VALID,0,
2016-03-22, 11:03:04,VALID,919.896,VALID,0,VALID,79.962,VALID,269.785,VALID,22.9557,VALID,287,VALID,0,
2016-03-22, 11:04:04,VALID,919.872,VALID,0,VALID,80.1374,VALID,272.578,VALID,23.0746,VALID,287,VALID,0,
2016-03-22, 11:05:04,VALID,919.848,VALID,0,VALID,80.9226,VALID,276.124,VALID,23.1899,VALID,287,VALID,0,
2016-03-22, 11:06:04,VALID,919.818,VALID,0,VALID,78.4526,VALID,280.529,VALID,23.2094,VALID,298,VALID,0,
2016-03-22, 11:07:04,VALID,919.795,VALID,0,VALID,78.9557,VALID,284.827,VALID,23.229,VALID,337,VALID,0,
2016-03-22, 11:08:04,VALID,919.781,VALID,0,VALID,77.9418,VALID,289.876,VALID,23.1899,VALID,292,VALID,0,
2016-03-22, 11:09:04,VALID,919.74,VALID,0,VALID,80.2746,VALID,295.571,VALID,23.1119,VALID,269,VALID,0,
2016-03-22, 11:10:04,VALID,919.748,VALID,0,VALID,79.9773,VALID,300.191,VALID,23.0728,VALID,258,VALID,0,
2016-03-22, 11:11:04,VALID,919.753,VALID,0,VALID,79.558,VALID,303.629,VALID,23.1314,VALID,258,VALID,0,
2016-03-22, 11:12:04,VALID,919.725,VALID,0,VALID,79.4741,VALID,308.464,VALID,23.268,VALID,258,VALID,0,
2016-03-22, 11:13:04,VALID,919.73,VALID,0,VALID,77.8503,VALID,312.976,VALID,23.3461,VALID,235,VALID,0,
2016-03-22, 11:14:04,VALID,919.707,VALID,0,VALID,78.1781,VALID,316.307,VALID,23.4437,VALID,236,VALID,0,
2016-03-22, 11:15:04,VALID,919.727,VALID,0,VALID,76.6153,VALID,323.505,VALID,23.4632,VALID,243,VALID,0,
2016-03-22, 11:16:04,VALID,919.718,VALID,0,VALID,76.9965,VALID,328.877,VALID,23.5022,VALID,249,VALID,0,
2016-03-22, 11:17:04,VALID,919.722,VALID,0,VALID,77.7512,VALID,336.506,VALID,23.4827,VALID,239,VALID,0,
2016-03-22, 11:18:04,VALID,919.687,VALID,0,VALID,78.3916,VALID,344.886,VALID,23.5803,VALID,238,VALID,0,
2016-03-22, 11:19:04,VALID,919.704,VALID,0,VALID,76.6839,VALID,352.729,VALID,23.6406,VALID,250,VALID,0,
2016-03-22, 11:20:04,VALID,919.718,VALID,0,VALID,77.2709,VALID,364.118,VALID,23.5803,VALID,257,VALID,0,
2016-03-22, 11:21:04,VALID,919.685,VALID,0,VALID,77.7665,VALID,385.069,VALID,23.6193,VALID,285,VALID,0,
2016-03-22, 11:22:04,VALID,919.673,VALID,0,VALID,79.6266,VALID,436.319,VALID,23.6974,VALID,356,VALID,0,
2016-03-22, 11:23:04,VALID,919.646,VALID,0,VALID,77.6216,VALID,419.773,VALID,23.7151,VALID,244,VALID,0,
2016-03-22, 11:24:04,VALID,919.659,VALID,0,VALID,77.8122,VALID,422.029,VALID,23.6193,VALID,234,VALID,0,
2016-03-22, 11:25:04,VALID,919.629,VALID,0,VALID,80.9836,VALID,428.583,VALID,23.7169,VALID,268,VALID,0,
2016-03-22, 11:26:04,VALID,919.601,VALID,0,VALID,77.3396,VALID,453.831,VALID,23.7151,VALID,228,VALID,0.179297,
2016-03-22, 11:27:04,VALID,919.616,VALID,0,VALID,78.6279,VALID,456.195,VALID,23.7755,VALID,240,VALID,0.374609,
2016-03-22, 11:28:04,VALID,919.575,VALID,0,VALID,77.5683,VALID,470.162,VALID,23.7151,VALID,273,VALID,0.0289063,
2016-03-22, 11:29:04,VALID,919.535,VALID,0,VALID,78.666,VALID,506.478,VALID,23.7151,VALID,274,VALID,0,
2016-03-22, 11:30:04,VALID,919.524,VALID,0,VALID,78.3306,VALID,528.396,VALID,23.795,VALID,212,VALID,0,
2016-03-22, 11:31:04,VALID,919.5,VALID,0,VALID,78.5669,VALID,536.883,VALID,23.9103,VALID,268,VALID,0,
2016-03-22, 11:32:04,VALID,919.484,VALID,0,VALID,78.8947,VALID,551.603,VALID,24.0488,VALID,355,VALID,0,
2016-03-22, 11:33:04,VALID,919.469,VALID,0,VALID,78.1934,VALID,584.05,VALID,24.2421,VALID,270,VALID,0,
2016-03-22, 11:34:04,VALID,919.457,VALID,0,VALID,77.2709,VALID,608.762,VALID,24.4178,VALID,273,VALID,0,